[[{"header":{"parameterUnit":"m.s-1","parameterCategory":1,"la1":30.2991,"la2":30.254,"lo1":-89.0895,"lo2":-89.0444,"dy":0.0017,"dx":0.0017,"nx":28,"ny":28,"refTime":"2024-06-13T03:00:00:Z","depth":0,"parameterNumber":2,"parameterNumberName":"U-component_of_WINDS"},"data":[0,0,0,0,0,0,0,0,0,0,0,0,0,0,0,0,0,0,0,0,0,0,0,0,0,0,0,0,0,0,0,0,0,0,0,0,0,0,0,0,0,0,0,0,0,0,0,0,0,0,0,0,0,0,0,0,0,0,-0.8643,-0.8642,0,-0.8502,-0.8501,-0.8499,-0.8377,-0.8376,-0.8375,-0.8373,-0.8228,-0.8226,-0.8223,0,0,0,0,0,0,0,0,0,0,0,0,0,-0.8808,-0.8806,-0.8644,-0.8642,-0.864,-0.8503,-0.8501,-0.8499,-0.8378,-0.8376,-0.8374,-0.8373,-0.8229,-0.8226,-0.8223,0,0,0,0,0,0,0,0,0,0,0,0,0,-0.8709,-0.8805,-0.8644,-0.8563,-0.8554,-0.8503,-0.8501,-0.8498,-0.8378,-0.8376,-0.8374,-0.8372,-0.823,-0.8227,-0.8223,-0.824,0,0,-0.8211,-0.8209,0,0,0,0,0,0,0,0,-0.8715,-0.8703,-0.8577,-0.8569,-0.8559,-0.8455,-0.8505,-0.8412,-0.8379,-0.8445,-0.8373,-0.8371,-0.8306,-0.8295,-0.8273,-0.8233,-0.8227,-0.8211,-0.8208,-0.8207,-0.8205,0,0,0,0,0,0,0,-0.8722,-0.8709,-0.8588,-0.8575,-0.8564,-0.8534,-0.8518,-0.8487,-0.8389,-0.8439,-0.843,-0.8415,-0.83,-0.8277,-0.8269,-0.8225,-0.8211,-0.8207,-0.8205,-0.8203,-0.8193,-0.8195,0,0,0,0,0,0,-0.8741,-0.8715,-0.8592,-0.8583,-0.8633,-0.8533,-0.8514,-0.8491,-0.8389,-0.8371,-0.8417,-0.841,-0.8285,-0.8274,-0.8264,-0.8278,-0.8207,-0.8203,-0.8201,-0.8191,-0.8193,-0.8195,0,0,0,0,0,0,-0.8745,-0.8731,-0.8598,-0.8647,-0.8627,-0.8532,-0.8506,-0.8489,-0.8466,-0.8372,-0.8353,-0.8412,-0.8283,-0.8269,-0.8247,-0.8271,-0.8201,-0.8198,-0.8188,-0.8192,-0.8194,-0.8307,0,0,0,0,0,0,-0.8751,-0.8734,-0.8739,-0.8648,-0.8625,-0.8584,-0.8508,-0.8488,-0.846,-0.8449,-0.8362,-0.8346,-0.828,-0.8254,-0.8243,-0.8265,-0.8195,-0.8186,-0.819,-0.8193,-0.83,-0.8313,-0.8324,0,0,0,0,0,-0.8757,-0.8776,-0.874,-0.8726,-0.863,-0.8586,-0.8573,-0.8497,-0.8462,-0.8467,-0.8407,-0.8348,-0.827,-0.8252,-0.824,-0.826,-0.8184,-0.8189,-0.8193,-0.8295,-0.8311,-0.8324,0,0,0,0,0,0,-0.8872,-0.8762,-0.8721,-0.8711,-0.8659,-0.8565,-0.8569,-0.8516,-0.8472,-0.8464,-0.8372,-0.8354,-0.8342,-0.8299,-0.8281,-0.8272,-0.8219,-0.8222,-0.8301,-0.8315,-0.8327,-0.8338,-0.8191,0,0,0,0,0,-0.8896,-0.8869,-0.8775,-0.8775,-0.8751,-0.8665,-0.8642,-0.8589,-0.8531,-0.8508,-0.8446,-0.8392,-0.8355,-0.8332,-0.8293,-0.8293,-0.8273,-0.8301,-0.8313,-0.8324,-0.8327,-0.8325,-0.8337,-0.8211,-0.8211,-0.821,0,0,-0.8946,-0.8883,-0.8871,-0.8797,-0.8749,-0.8724,-0.8647,-0.8623,-0.8603,-0.8504,-0.848,-0.8433,-0.8366,-0.8356,-0.8348,-0.8319,-0.8357,-0.8329,-0.8338,-0.8336,-0.8331,-0.8343,-0.8354,-0.8214,-0.8213,-0.8213,0,0,-0.9023,-0.8973,-0.8968,-0.8923,-0.8853,-0.8796,-0.8795,-0.8709,-0.8674,-0.8649,-0.8575,-0.855,-0.8488,-0.8444,-0.8414,-0.8477,-0.8422,-0.8466,-0.8529,-0.8528,-0.8538,-0.8547,-0.857,-0.858,-0.847,-0.847,-0.847,0,-0.9094,-0.9052,-0.8972,-0.8953,-0.8923,-0.8833,-0.8828,-0.8788,-0.8709,-0.869,-0.8659,-0.8581,-0.8529,-0.8508,-0.8524,-0.8502,-0.8499,-0.8476,-0.8543,-0.8551,-0.8557,-0.8579,-0.8588,-0.8476,-0.8475,-0.8475,-0.8474,0,-0.9143,-0.9116,-0.912,-0.9047,-0.9017,-0.9005,-0.8924,-0.8903,-0.8853,-0.88,-0.8776,-0.8711,-0.8658,-0.8649,-0.8599,-0.8621,-0.8606,-0.856,-0.8505,-0.8577,-0.8596,-0.8603,-0.8485,-0.8483,-0.8481,-0.8479,0,0,-0.9288,-0.9172,-0.9175,-0.9142,-0.9059,-0.9036,-0.902,-0.8969,-0.8954,-0.8903,-0.8888,-0.8839,-0.8797,-0.8762,-0.8707,-0.8706,-0.8762,-0.8661,-0.8658,-0.8683,-0.8784,-0.882,-0.8831,-0.8725,-0.8727,-0.8727,-0.879,0,-0.9353,-0.932,-0.9248,-0.9238,-0.9212,-0.9127,-0.9114,-0.9062,-0.9012,-0.8983,-0.8927,-0.8894,-0.8841,-0.882,-0.8815,-0.8757,-0.8781,-0.8751,-0.8711,-0.8711,-0.8732,-0.884,-0.8877,-0.8939,-0.8797,-0.8798,-0.8799,0,-0.9424,-0.9379,-0.9367,-0.9287,-0.9273,-0.9263,-0.921,-0.9184,-0.9123,-0.9087,-0.905,-0.8989,-0.8969,-0.8919,-0.889,-0.8871,-0.8851,-0.882,-0.882,-0.8814,-0.876,-0.8838,-0.8957,-0.8967,-0.8809,-0.8808,-0.8808,0,-0.9533,-0.9469,-0.9454,-0.9427,-0.9333,-0.9328,-0.9289,-0.9226,-0.9201,-0.9155,-0.9138,-0.9091,-0.9065,-0.903,-0.8959,-0.8928,-0.8939,-0.8882,-0.8909,-0.8911,-0.8915,-0.8916,-0.9034,-0.8901,-0.8901,-0.8901,-0.89,0,-0.9613,-0.9609,-0.9502,-0.9493,-0.9486,-0.9403,-0.9399,-0.9352,-0.9298,-0.9278,-0.9201,-0.9185,-0.9091,-0.9064,-0.9008,-0.8994,-0.8982,-0.8953,-0.8938,-0.896,-0.8964,-0.8946,-0.894,-0.8903,-0.8902,-0.8902,-0.8902,0,-0.9733,-0.9661,-0.9639,-0.9552,-0.9531,-0.953,-0.9455,-0.9444,-0.939,-0.9366,-0.9356,-0.9271,-0.9235,-0.916,-0.9104,-0.9066,-0.9066,-0.9039,-0.9086,-0.9077,-0.9109,-0.9108,-0.922,-0.9231,-0.9091,-0.9093,-0.9094,0,-0.979,-0.9785,-0.9698,-0.968,-0.9644,-0.9615,-0.9588,-0.9507,-0.9483,-0.9415,-0.9412,-0.937,-0.9333,-0.928,-0.9213,-0.917,-0.9142,-0.9184,-0.9135,-0.9158,-0.9144,-0.9146,-0.9145,-0.9196,-0.9198,-0.9199,-0.92,0,-0.9898,-0.9863,-0.9828,-0.9781,-0.9752,-0.9711,-0.9666,-0.9656,-0.9564,-0.9541,-0.9504,-0.9475,-0.9418,-0.9378,-0.9325,-0.9284,-0.9228,-0.9217,-0.9221,-0.9244,-0.9272,-0.9258,-0.9118,-0.9214,-0.9213,-0.9212,-0.9211,-0.9211,-0.9988,-0.9981,-0.9919,-0.9883,-0.9841,-0.9801,-0.9786,-0.9731,-0.9698,-0.9646,-0.96,-0.9568,-0.9509,-0.9432,-0.9395,-0.9369,-0.9341,-0.9347,-0.9348,-0.9351,-0.9361,-0.9276,-0.9359,-0.9358,-0.9358,-0.9357,-0.9357,0,-1.0093,-1.005,-1.0017,-0.9958,-0.993,-0.9879,-0.9827,-0.9808,-0.978,-0.973,-0.9695,-0.9653,-0.9614,-0.9545,-0.9501,-0.9493,-0.9467,-0.9485,-0.9485,-0.9477,-0.9388,-0.939,-0.9507,-0.9507,-0.9507,-0.9507,-0.9507,-0.9507,-1.0145,-1.013,-1.0088,-1.0051,-1.0007,-0.9975,-0.995,-0.9914,-0.9873,-0.983,-0.9798,-0.9753,-0.9696,-0.9647,-0.961,-0.959,-0.9578,-0.9605,-0.9578,-0.9497,-0.9483,-0.9469,-0.947,-0.9603,-0.9603,-0.9668,-0.9669,-0.967]},{"header":{"parameterUnit":"m.s-1","parameterCategory":1,"la1":30.2991,"la2":30.254,"lo1":-89.0895,"lo2":-89.0444,"dy":0.0017,"dx":0.0017,"nx":28,"ny":28,"refTime":"2024-06-13T03:00:00:Z","depth":0,"parameterNumber":3,"parameterNumberName":"V-component_of_WINDS"},"data":[0,0,0,0,0,0,0,0,0,0,0,0,0,0,0,0,0,0,0,0,0,0,0,0,0,0,0,0,0,0,0,0,0,0,0,0,0,0,0,0,0,0,0,0,0,0,0,0,0,0,0,0,0,0,0,0,0,0,2.9752,2.9752,0,2.9711,2.9711,2.971,2.9686,2.9686,2.9686,2.9686,2.964,2.9638,2.9637,0,0,0,0,0,0,0,0,0,0,0,0,0,2.9805,2.9804,2.9752,2.9752,2.9751,2.9711,2.9711,2.971,2.9686,2.9686,2.9686,2.9686,2.964,2.9639,2.9637,0,0,0,0,0,0,0,0,0,0,0,0,0,2.9775,2.9804,2.9752,2.9734,2.9733,2.9711,2.9711,2.971,2.9686,2.9686,2.9686,2.9686,2.964,2.9639,2.9637,2.9629,0,0,2.9632,2.9631,0,0,0,0,0,0,0,0,2.9777,2.9773,2.9738,2.9736,2.9733,2.9704,2.9712,2.9683,2.9686,2.9704,2.9686,2.9686,2.9661,2.9657,2.965,2.9627,2.9625,2.9632,2.963,2.963,2.9629,0,0,0,0,0,0,0,2.9779,2.9774,2.9736,2.9737,2.9735,2.9727,2.9723,2.9707,2.9683,2.9702,2.97,2.9696,2.966,2.9652,2.9649,2.9624,2.9632,2.963,2.9629,2.9628,2.9592,2.9592,0,0,0,0,0,0,2.9784,2.9776,2.9737,2.9735,2.9755,2.9726,2.9721,2.9713,2.9683,2.9679,2.9696,2.9695,2.9655,2.9651,2.9647,2.9635,2.963,2.9628,2.9627,2.9591,2.9592,2.9592,0,0,0,0,0,0,2.9785,2.9781,2.9739,2.9755,2.9749,2.9726,2.9717,2.9713,2.9705,2.9679,2.9674,2.9693,2.9654,2.9649,2.9634,2.9633,2.9627,2.9626,2.9591,2.9591,2.9592,2.9612,0,0,0,0,0,0,2.9787,2.9782,2.9779,2.9755,2.9748,2.9728,2.9717,2.9712,2.9702,2.97,2.9674,2.967,2.9654,2.9637,2.9632,2.9631,2.9624,2.9591,2.9591,2.9592,2.9611,2.9612,2.9614,0,0,0,0,0,2.9789,2.9785,2.9779,2.9775,2.9745,2.9728,2.9724,2.9707,2.9702,2.9699,2.9683,2.9671,2.9634,2.9635,2.963,2.9628,2.9591,2.9591,2.9592,2.961,2.9612,2.9614,0,0,0,0,0,0,2.9808,2.9782,2.9775,2.9764,2.9748,2.9724,2.9719,2.9709,2.9693,2.9692,2.967,2.9664,2.9651,2.9638,2.9639,2.9618,2.9611,2.961,2.9627,2.9629,2.963,2.9633,2.9623,0,0,0,0,0,2.9812,2.9801,2.9778,2.977,2.9763,2.9743,2.9734,2.9723,2.9705,2.9698,2.9681,2.9663,2.9647,2.9637,2.9622,2.9609,2.9602,2.9605,2.9606,2.9608,2.9607,2.9599,2.9599,2.9592,2.9592,2.9592,0,0,2.9817,2.9802,2.9796,2.9774,2.9761,2.9749,2.9737,2.9725,2.9716,2.9696,2.9681,2.9667,2.9646,2.9632,2.9625,2.962,2.9608,2.9608,2.9609,2.9608,2.9599,2.96,2.96,2.9592,2.9592,2.9592,0,0,2.9822,2.981,2.9802,2.979,2.977,2.9757,2.9755,2.9732,2.9723,2.9708,2.9692,2.968,2.9654,2.9639,2.9628,2.9629,2.9617,2.9624,2.9631,2.9623,2.9624,2.9624,2.9623,2.9624,2.9623,2.9623,2.9623,0,2.9832,2.9815,2.9799,2.9788,2.9779,2.9762,2.9753,2.9741,2.9717,2.971,2.9706,2.9673,2.9657,2.9639,2.964,2.9631,2.9628,2.9626,2.9625,2.9625,2.9625,2.9625,2.9625,2.9624,2.9624,2.9624,2.9624,0,2.9827,2.9816,2.9812,2.9791,2.978,2.9771,2.9752,2.9743,2.9733,2.9719,2.9703,2.9684,2.9664,2.9659,2.9648,2.9639,2.9637,2.963,2.9622,2.9628,2.9626,2.9626,2.9626,2.9625,2.9625,2.9625,0,0,2.9842,2.9814,2.9812,2.9803,2.978,2.977,2.9759,2.9742,2.9734,2.9718,2.9708,2.9686,2.9679,2.9667,2.9654,2.9647,2.9648,2.964,2.9639,2.9642,2.9637,2.9642,2.9642,2.964,2.964,2.964,2.9638,0,2.9844,2.9825,2.9811,2.9797,2.9785,2.9769,2.976,2.9744,2.9731,2.9719,2.9704,2.9689,2.9681,2.9673,2.9666,2.965,2.9647,2.9649,2.9629,2.9628,2.9634,2.9642,2.9648,2.9647,2.9638,2.9638,2.9638,0,2.9843,2.9829,2.9815,2.9794,2.9788,2.978,2.9763,2.9751,2.9733,2.9724,2.9711,2.9698,2.9684,2.9679,2.9659,2.9661,2.9652,2.9642,2.9642,2.9639,2.9633,2.9638,2.9646,2.9646,2.9637,2.9637,2.9637,0,2.9855,2.9832,2.9821,2.9813,2.9789,2.9783,2.9772,2.9754,2.9745,2.9729,2.9722,2.9704,2.9694,2.968,2.9662,2.966,2.9644,2.9637,2.9635,2.9635,2.9631,2.9632,2.9637,2.9627,2.9627,2.9627,2.9627,0,2.9857,2.9849,2.9826,2.9819,2.9809,2.9792,2.9781,2.9769,2.9753,2.9742,2.9727,2.9717,2.9694,2.968,2.9666,2.9651,2.9647,2.9638,2.9634,2.9639,2.964,2.9632,2.9632,2.9626,2.9626,2.9626,2.9627,0,2.9868,2.9853,2.984,2.9818,2.9812,2.9806,2.9786,2.9778,2.9765,2.9751,2.9747,2.9725,2.9709,2.969,2.9666,2.9657,2.9643,2.9638,2.965,2.9647,2.9646,2.9646,2.9646,2.9645,2.9636,2.9636,2.9636,0,2.9871,2.9864,2.9843,2.9835,2.9825,2.9813,2.9804,2.9786,2.9776,2.9755,2.9749,2.9732,2.9717,2.9691,2.9673,2.9655,2.9648,2.965,2.9645,2.965,2.9647,2.9648,2.9647,2.965,2.9651,2.9651,2.9651,0,2.9877,2.987,2.9857,2.9842,2.9832,2.9819,2.9805,2.9799,2.9778,2.9768,2.9752,2.9741,2.9718,2.97,2.968,2.9667,2.9655,2.9653,2.9651,2.9656,2.9663,2.9658,2.9652,2.9652,2.9652,2.9652,2.9652,2.9652,2.9883,2.9876,2.986,2.9847,2.9835,2.9823,2.9814,2.98,2.9787,2.9768,2.9758,2.9742,2.9723,2.9695,2.9683,2.9669,2.9665,2.9663,2.9662,2.9662,2.9663,2.9666,2.9665,2.9665,2.9665,2.9665,2.9665,0,2.9887,2.9877,2.9865,2.9846,2.9836,2.9828,2.9812,2.9803,2.9789,2.9774,2.976,2.9741,2.9724,2.9705,2.9686,2.9679,2.9673,2.9675,2.9674,2.9672,2.9668,2.9671,2.968,2.968,2.968,2.968,2.968,2.968,2.9888,2.9877,2.9868,2.985,2.9838,2.9824,2.9816,2.9804,2.9791,2.9772,2.9758,2.9746,2.9729,2.9709,2.9693,2.9687,2.9681,2.9684,2.9677,2.9673,2.9672,2.9671,2.9673,2.9683,2.9683,2.9681,2.9681,2.9681]}]]